Вернуться в каталог

THOR ABLESTAR DEB

АктивенPO
NORAD 706·DEBRIS·🇺🇸 United States

Запущен Dec 5, 1963 с Vandenberg Space Force Base

Loading…

Ближайшие Пролёты (ближайшие 24 часа)

TLE

СвежийSource: Space-Track

Эпоха: Sep 14, 2026, 10:44 UTC

1 00706U 63049D   26257.44754339  .00000202  00000-0  27170-3 0  9990
2 00706  89.9122  72.2592 0027369 155.2596 233.5626 13.56652450 95416

Отслеживайте THOR ABLESTAR DEB в реальном времени с AllMySat

Download on the App Store